ASIASAT 5

Last updated on Jan. 29, 2020, 4:37 a.m. UTC

1 35696U 09042A   20028.80658171 -.00000309  00000-0  00000-0 0  9995
2 35696   0.0177  85.6592 0001419 203.7766 228.9485  1.00272747 38310
UTC
Height (km)
Latitude
Longitude
Inclination
Orbital Period
UTC large
Height (km)
Speed (km/s)
/
Latitude / Longitude
Inclination (degrees)
Orbital Period (minutes)
Azimuth
Elevation
Range (km)
Doppler Factor
iOS Compass Heading
iOS Angle

Next 30 passes for location: Hong Kong

Rise time Rise Azimuth (degrees) Set time Set Azimuth (degrees) Duration Max altitude (degrees)

No matching passes for this satellites